Northeast Philadelphia, PA

6:43 AM EDT on October 16, 2019 (GMT -0400)
Northeast Philadelphia

Weather History for KPNE - August, 2019

Change the Weather History Date:

Friday, August 30, 2019

  Actual Average Record
Temperature  
Mean Temperature 75 °F -  
Max Temperature 90 °F 79 °F 93 °F (2010)
Min Temperature 61 °F 62 °F 57 °F (1999)
Cooling Degree Days 10    
Growing Degree Days 25 (Base 50)    
Moisture  
Dew Point 59 °F    
Average Humidity 57    
Maximum Humidity 84    
Minimum Humidity 35    
Precipitation  
Precipitation 0.00 in - - ()
Sea Level Pressure  
Sea Level Pressure 30.05 in    
Wind  
Wind Speed 4 mph ()    
Max Wind Speed 15 mph    
Max Gust Speed 22 mph    
Visibility 10.0 miles    
Events      
Averages and records for this station are not official NWS values.
T = Trace of Precipitation, MM = Missing Value Source: Averaged Metar Reports

Daily Weather History Graph

Daily Weather History Graph

Search for Another Location

Airport or City:

Astronomy

Aug. 30, 2019 Rise Set
Actual Time 6:25 AM EDT 7:35 PM EDT
Civil Twilight 5:57 AM EDT 8:02 PM EDT
Nautical Twilight 5:24 AM EDT 8:36 PM EDT
Astronomical Twilight 4:49 AM EDT 9:11 PM EDT
Moon 6:23 AM EDT (8/30) 8:10 PM EDT (8/30)
Length of Visible Light 14h 05m
Length of Day
13h 09m
New Moon, 0% of the Moon is Illuminated
Aug 30
New Moon
Sep 5
First Quarter
Sep 14
Full
Sep 21
Last Quarter
Sep 28
New

Hourly Weather History & Observations

Time (EDT) Temp. Heat Index Dew Point Humidity Pressure Visibility Wind Dir Wind Speed Gust Speed Precip Events Conditions
12:54 AM 66.0 °F - 57.0 °F 73% 30.03 in 10.0 mi Calm Calm - N/A   Clear
1:54 AM 63.0 °F - 57.0 °F 81% 30.02 in 10.0 mi Calm Calm - N/A   Clear
2:54 AM 63.0 °F - 57.0 °F 81% 30.03 in 10.0 mi Calm Calm - N/A   Clear
3:54 AM 62.1 °F - 57.0 °F 84% 30.03 in 10.0 mi Calm Calm - N/A   Clear
4:54 AM 62.1 °F - 57.0 °F 84% 30.04 in 10.0 mi Calm Calm - N/A   Clear
5:54 AM 61.0 °F - 55.9 °F 83% 30.04 in 10.0 mi Calm Calm - N/A   Clear
6:54 AM 62.1 °F - 55.9 °F 80% 30.06 in 10.0 mi Calm Calm - N/A   Clear
7:54 AM 71.1 °F - 61.0 °F 70% 30.06 in 10.0 mi Calm Calm - N/A   Clear
8:54 AM 75.0 °F - 60.1 °F 60% 30.07 in 10.0 mi SW 6.9 mph - N/A   Clear
9:54 AM 80.1 °F 80.6 °F 57.9 °F 47% 30.07 in 10.0 mi SW 8.1 mph - N/A   Clear
10:54 AM 82.9 °F 82.4 °F 57.0 °F 41% 30.07 in 10.0 mi WSW 12.7 mph - N/A   Clear
11:54 AM 84.9 °F 83.9 °F 57.0 °F 38% 30.06 in 10.0 mi SSW 10.4 mph - N/A   Clear
12:54 PM 86.0 °F 85.4 °F 59.0 °F 40% 30.04 in 10.0 mi WSW 15.0 mph 20.7 mph N/A   Clear
1:54 PM 88.0 °F 87.1 °F 59.0 °F 37% 30.03 in 10.0 mi WSW 11.5 mph 20.7 mph N/A   Clear
2:54 PM 89.1 °F 88.0 °F 57.9 °F 35% 30.01 in 10.0 mi WSW 11.5 mph - N/A   Clear
3:54 PM 89.1 °F 88.2 °F 59.0 °F 36% 30.01 in 10.0 mi WSW 11.5 mph - N/A   Clear
4:54 PM 86.0 °F 86.1 °F 61.0 °F 43% 30.01 in 10.0 mi West 10.4 mph 21.9 mph N/A   Mostly Cloudy
5:54 PM 87.1 °F 87.0 °F 61.0 °F 41% 30.01 in 10.0 mi West 11.5 mph - N/A   Partly Cloudy
6:54 PM 84.9 °F 84.8 °F 60.1 °F 43% 30.03 in 10.0 mi West 9.2 mph - N/A   Clear
7:54 PM 81.0 °F 81.7 °F 61.0 °F 50% 30.04 in 10.0 mi WSW 6.9 mph - N/A   Clear
8:54 PM 81.0 °F 81.7 °F 61.0 °F 50% 30.06 in 10.0 mi SSW 3.5 mph - N/A   Clear
9:54 PM 79.0 °F - 62.1 °F 56% 30.08 in 10.0 mi WSW 4.6 mph - N/A   Scattered Clouds
10:54 PM 78.1 °F - 61.0 °F 56% 30.09 in 10.0 mi SW 4.6 mph - N/A   Clear
11:54 PM 77.0 °F - 60.1 °F 56% 30.10 in 10.0 mi WSW 4.6 mph - N/A   Clear